Regional Weather Roundup
Issued by NWS

Home | Current Version | Previous Version | Graphics & Text | Print | Product List | Glossary On
Versions: 1 2 3 4 5 6 7 8 9 10 11 12 13 14 15 16 17 18 19 20 21 22 23 24 25 26 27 28 29 30 31 32 33 34 35 36 37 38 39 40 41 42 43 44 45 46 47 48 49 50
000
ASUS43 KFSD 261802
RWRSD

WEATHER ROUNDUP FOR SOUTH DAKOTA
NATIONAL WEATHER SERVICE SIOUX FALLS SD
100 PM CDT SUN APR 26 2015

NOTE: "FAIR" INDICATES FEW OR NO CLOUDS BELOW 12,000 FEET WITH NO
SIGNIFICANT WEATHER AND/OR OBSTRUCTIONS TO VISIBILITY.


SDZ001>005-009-010-012>017-261900-
NORTHWEST AND NORTH CENTRAL SOUTH DAKOTA

CITY           SKY/WX    TMP DP  RH WIND       PRES   REMARKS
BUFFALO          N/A     43  42  97 NE16      29.98R
FAITH            N/A     57  41  55 SE15G21   30.02R
MOBRIDGE       CLOUDY    60  36  40 SE13      30.04S
$$

SDZ012>016-024>037-041>051-057-063-072>074-261900-
SOUTHWEST AND SOUTH CENTRAL SOUTH DAKOTA

CITY           SKY/WX    TMP DP  RH WIND       PRES   REMARKS
RAPID CTY ARPT CLOUDY    46  45  96 N8        30.00S FOG
PIERRE         MOSUNNY   61  42  49 E16G23    30.03S
CUSTER         LGT RAIN  40  38  93 E14       29.98R FOG
ELLSWORTH AFB  CLOUDY    45  45 100 N8        30.00S FOG
PHILIP         PTSUNNY   57  41  55 SE15G23   30.01S
PINE RIDGE     CLOUDY    48  41  76 SE10      29.99R
WINNER         CLOUDY    58  38  47 SE17G23   30.04S
$$

SDZ004>011-016>023-039-040-261900-
NORTHEAST SOUTH DAKOTA

CITY           SKY/WX    TMP DP  RH WIND       PRES   REMARKS
ABERDEEN       SUNNY     64  32  30 SE12      30.09S
WATERTOWN      SUNNY     60  32  34 E3        30.09S
BROOKINGS      SUNNY     61  34  36 E9        30.09S
SISSETON         N/A     61  27  27 SE13      30.11S
$$

SDZ017-020-022-023-036>040-048>070-261900-
SOUTHEAST SOUTH DAKOTA

CITY           SKY/WX    TMP DP  RH WIND       PRES   REMARKS
SIOUX FALLS    MOSUNNY   61  31  32 SE10      30.07F
HURON          SUNNY     61  31  32 S7G22     30.08S
MITCHELL       SUNNY     61  35  37 SE16      30.08S
YANKTON        SUNNY     61  30  31 E10G21    30.06S
$$

ABBREVIATIONS USED IN REMARKS
   TC - TEMPERATURE IN CELSIUS
  WCI - WIND CHILL INDEX
   HX - HEAT INDEX
  VSB - VISIBILITY



USA.gov is the U.S. government's official web portal to all federal, state and local government web resources and services.